Date String (YYYY-MM-DD hh:mm:ss) UTC,Instrument flags,Ambient pressure (hPa),Sample flow (lpm),Bypass flow (lpm),Sample temperature (°C),Ambient temperature (°C),ASC tube jacket temperature (°C),LED temperature (°C),Box temperature (°C),Sample RH (%),Span deviation,Mass concentration (μg/m³),Mass concentration (μg/m³),Mass concentration (μg/m³)
DateTimeUTC,F1_M11,P_M11,Q1_M11,Q2_M11,T1_M11,T2_M11,T3_M11,T4_M11,T5_M11,U1_M11,ZSPAN_M11,X0_M11,X2_M11,X1_M11
2021-11-16 02:00:00,,0825.6,5.01,0.00,30.1,29.3,00.0,39.0,31.8,08.3,0000.0,0000.94,0000.56,0000.32
2021-11-16 02:01:00,,0825.6,4.99,0.00,30.1,29.3,00.0,39.0,31.9,08.3,0000.0,0000.79,0000.53,0000.32
2021-11-16 02:02:00,,0825.6,4.98,0.00,30.1,29.3,00.0,39.1,31.8,08.3,0000.0,0000.75,0000.50,0000.32
2021-11-16 02:03:00,,0825.6,5.01,0.00,30.1,29.3,00.0,39.1,31.8,08.3,0000.0,0000.75,0000.48,0000.32
2021-11-16 02:04:00,,0825.5,5.00,0.00,30.1,29.3,00.0,39.1,31.9,08.2,0000.0,0000.81,0000.48,0000.32
2021-11-16 02:05:00,,0825.6,4.98,0.00,30.2,29.3,00.0,39.1,31.9,08.2,0000.0,0000.88,0000.50,0000.32
2021-11-16 02:06:00,,0825.5,5.00,0.00,30.2,29.3,00.0,39.1,31.9,08.2,0000.0,0000.92,0000.47,0000.32
2021-11-16 02:07:00,,0825.5,5.01,0.00,30.2,29.3,00.0,39.1,31.9,08.2,0000.0,0000.93,0000.46,0000.32
2021-11-16 02:08:00,,0825.4,5.00,0.00,30.2,29.3,00.0,39.1,31.9,08.2,0000.0,0000.93,0000.46,0000.31
2021-11-16 02:09:00,,0825.5,5.01,0.00,30.2,29.3,00.0,39.1,31.9,08.2,0000.0,0001.01,0000.47,0000.30
2021-11-16 02:10:00,,0825.5,4.99,0.00,30.2,29.4,00.0,39.1,31.9,08.2,0000.0,0001.05,0000.46,0000.30
2021-11-16 02:11:00,,0825.5,5.01,0.00,30.2,29.4,00.0,39.2,31.9,08.1,0000.0,0001.05,0000.46,0000.30
2021-11-16 02:12:00,,0825.4,5.00,0.00,30.2,29.3,00.0,39.2,31.9,08.1,0000.0,0001.06,0000.46,0000.30
2021-11-16 02:13:00,,0825.5,5.00,0.00,30.2,29.3,00.0,39.2,31.9,08.1,0000.0,0001.00,0000.45,0000.30
2021-11-16 02:14:00,,0825.5,5.00,0.00,30.2,29.3,00.0,39.2,31.9,08.1,0000.0,0000.97,0000.44,0000.29
2021-11-16 02:15:00,,0825.4,4.99,0.00,30.2,29.3,00.0,39.2,31.9,08.1,0000.0,0000.89,0000.42,0000.29
2021-11-16 02:16:00,,0825.4,5.00,0.00,30.2,29.4,00.0,39.2,31.9,08.1,0000.0,0000.83,0000.40,0000.28
2021-11-16 02:17:00,,0825.3,4.99,0.00,30.2,29.4,00.0,39.2,32.0,08.1,0000.0,0000.74,0000.40,0000.28
2021-11-16 02:18:00,,0825.3,5.01,0.00,30.2,29.4,00.0,39.2,31.9,08.1,0000.0,0000.71,0000.40,0000.28
2021-11-16 02:19:00,,0825.3,4.99,0.00,30.2,29.4,00.0,39.2,32.0,08.1,0000.0,0000.69,0000.38,0000.29
2021-11-16 02:20:00,,0825.4,5.01,0.00,30.2,29.4,00.0,39.2,31.9,08.1,0000.0,0000.66,0000.37,0000.29
2021-11-16 02:21:00,,0825.3,5.00,0.00,30.3,29.4,00.0,39.2,32.0,08.1,0000.0,0000.61,0000.36,0000.28
2021-11-16 02:22:00,,0825.3,5.00,0.00,30.3,29.4,00.0,39.2,32.0,08.1,0000.0,0000.67,0000.38,0000.28
2021-11-16 02:23:00,,0825.4,5.00,0.00,30.2,29.4,00.0,39.2,32.0,08.0,0000.0,0000.69,0000.38,0000.27
2021-11-16 02:24:00,,0825.3,5.01,0.00,30.2,28.5,00.0,39.2,31.7,08.1,0000.0,0000.84,0000.42,0000.28
2021-11-16 02:25:00,,0825.3,5.00,0.00,30.1,26.5,00.0,39.2,31.3,08.1,0000.0,0000.92,0000.45,0000.29
2021-11-16 02:26:00,,0825.2,5.01,0.00,30.0,26.3,00.0,39.2,31.3,08.2,0000.0,0000.91,0000.46,0000.29
2021-11-16 02:27:00,,0825.2,5.00,0.00,29.9,26.6,00.0,39.1,31.3,08.2,0000.0,0000.93,0000.47,0000.30
2021-11-16 02:28:00,,0825.2,4.99,0.00,29.8,27.1,00.0,39.0,31.3,08.3,0000.0,0001.01,0000.49,0000.30
2021-11-16 02:29:00,,0825.2,5.01,0.00,29.8,27.4,00.0,39.0,31.3,08.3,0000.0,0001.07,0000.51,0000.30
2021-11-16 02:30:00,,0825.2,4.99,0.00,29.7,27.7,00.0,38.9,31.3,08.4,0000.0,0001.06,0000.51,0000.30
2021-11-16 02:31:00,,0825.2,5.00,0.00,29.7,27.9,00.0,38.9,31.3,08.4,0000.0,0000.99,0000.50,0000.30
2021-11-16 02:32:00,,0825.2,4.99,0.00,29.7,28.1,00.0,38.9,31.2,08.4,0000.0,0000.96,0000.49,0000.30
2021-11-16 02:33:00,,0825.2,4.99,0.00,29.6,28.2,00.0,38.8,31.2,08.5,0000.0,0000.89,0000.47,0000.30
2021-11-16 02:34:00,,0825.1,5.01,0.00,29.6,28.3,00.0,38.8,31.2,08.5,0000.0,0000.87,0000.46,0000.30
2021-11-16 02:35:00,,0825.1,4.99,0.00,29.6,28.3,00.0,38.8,31.2,08.6,0000.0,0000.73,0000.42,0000.29
2021-11-16 02:36:00,,0825.1,5.00,0.00,29.6,28.4,00.0,38.8,31.2,08.7,0000.0,0000.66,0000.39,0000.29
2021-11-16 02:37:00,,0825.1,5.00,0.00,29.5,28.4,00.0,38.8,31.1,08.7,0000.0,0000.63,0000.38,0000.28
2021-11-16 02:38:00,,0825.1,4.99,0.00,29.5,28.5,00.0,38.7,31.1,08.8,0000.0,0000.58,0000.35,0000.27
2021-11-16 02:39:00,,0825.1,5.00,0.00,29.5,28.5,00.0,38.7,31.1,08.7,0000.0,0000.56,0000.34,0000.26
2021-11-16 02:40:00,,0825.1,5.01,0.00,29.5,28.5,00.0,38.7,31.1,08.7,0000.0,0000.52,0000.33,0000.26
2021-11-16 02:41:00,,0825.1,5.01,0.00,29.5,28.6,00.0,38.7,31.2,08.7,0000.0,0000.55,0000.34,0000.25
2021-11-16 02:42:00,,0825.1,4.99,0.00,29.5,28.6,00.0,38.7,31.2,08.8,0000.0,0000.60,0000.36,0000.25
2021-11-16 02:43:00,,0825.1,5.01,0.00,29.5,28.6,00.0,38.7,31.1,08.8,0000.0,0000.65,0000.37,0000.25
2021-11-16 02:44:00,,0824.9,5.00,0.00,29.5,28.6,00.0,38.7,31.1,08.8,0000.0,0000.82,0000.40,0000.26
2021-11-16 02:45:00,,0824.9,5.00,0.00,29.5,28.6,00.0,38.7,31.1,08.8,0000.0,0000.87,0000.41,0000.26
2021-11-16 02:46:00,,0824.9,5.00,0.00,29.5,28.6,00.0,38.6,31.1,08.8,0000.0,0000.95,0000.43,0000.25
2021-11-16 02:47:00,,0824.9,4.99,0.00,29.5,28.6,00.0,38.6,31.1,08.8,0000.0,0000.95,0000.43,0000.25
2021-11-16 02:48:00,,0824.9,5.00,0.00,29.5,28.6,00.0,38.6,31.2,08.8,0000.0,0001.06,0000.46,0000.26
2021-11-16 02:49:00,,0824.9,5.01,0.00,29.5,28.6,00.0,38.6,31.1,08.8,0000.0,0001.32,0000.49,0000.26
2021-11-16 02:50:00,,0824.9,4.99,0.00,29.5,28.6,00.0,38.6,31.1,08.9,0000.0,0001.29,0000.48,0000.26
2021-11-16 02:51:00,,0824.9,4.99,0.00,29.5,28.7,00.0,38.6,31.2,08.9,0000.0,0001.31,0000.50,0000.27
2021-11-16 02:52:00,,0824.9,5.00,0.00,29.5,28.7,00.0,38.6,31.2,08.9,0000.0,0001.29,0000.50,0000.27
2021-11-16 02:53:00,,0824.9,5.00,0.00,29.5,28.7,00.0,38.6,31.2,08.9,0000.0,0001.24,0000.48,0000.27
2021-11-16 02:54:00,,0824.9,5.00,0.00,29.6,28.8,00.0,38.6,31.3,08.9,0000.0,0001.28,0000.48,0000.26
2021-11-16 02:55:00,,0824.9,5.00,0.00,29.6,28.8,00.0,38.6,31.3,08.9,0000.0,0001.17,0000.46,0000.26
2021-11-16 02:56:00,,0824.9,5.00,0.00,29.6,28.8,00.0,38.6,31.3,08.9,0000.0,0001.21,0000.45,0000.27
2021-11-16 02:57:00,,0824.9,5.01,0.00,29.6,28.8,00.0,38.6,31.3,08.9,0000.0,0001.12,0000.43,0000.27
2021-11-16 02:58:00,,0824.9,5.00,0.00,29.7,28.8,00.0,38.6,31.4,08.9,0000.0,0001.13,0000.44,0000.28
2021-11-16 02:59:00,,0824.9,4.99,0.00,29.7,28.9,00.0,38.6,31.4,08.8,0000.0,0001.02,0000.41,0000.27
